Ft Lauderdale, FL

5:34 PM EDT on June 27, 2017 (GMT -0400)
Fort Lauderdale-Hollywood International

Weather History for KFLL - April, 2013

Change the Weather History Date:

Tuesday, April 23, 2013

  Actual Average Record
Temperature  
Mean Temperature 76 °F 77 °F  
Max Temperature 83 °F 83 °F 93 °F (1997)
Min Temperature 68 °F 71 °F 53 °F (1986)
Degree Days  
Heating Degree Days 0 0  
Month to date heating degree days 0 0  
Since 1 July heating degree days 85 111  
Cooling Degree Days 11 12  
Month to date cooling degree days 291 249  
Year to date cooling degree days 880 859  
Growing Degree Days 26 (Base 50)    
Moisture  
Dew Point 65 °F    
Average Humidity 76    
Maximum Humidity 97    
Minimum Humidity 55    
Precipitation  
Precipitation 0.00 in 0.09 in 3.70 in (2017)
Month to date precipitation 5.51 2.37  
Year to date precipitation 8.72 12.32  
Snow  
Snow 0.00 in - - ()
Month to date snowfall 0.0  
Since 1 July snowfall 0.0  
Snow Depth 0.00 in    
Sea Level Pressure  
Sea Level Pressure 30.02 in    
Wind  
Wind Speed 14 mph (NNE)    
Max Wind Speed 24 mph    
Max Gust Speed 29 mph    
Visibility 10 miles    
Events      
T = Trace of Precipitation, MM = Missing Value Source: NWS Daily Summary

Daily Weather History Graph

Daily Weather History Graph

Search for Another Location

Airport or City:

Trip Planner

Search our weather history database for the weather conditions in past years. The results will help you decide how hot, cold, wet, or windy it might be!

Date:

Astronomy

Apr. 23, 2013 Rise Set
Actual Time 6:49 AM EDT 7:48 PM EDT
Civil Twilight 6:25 AM EDT 8:12 PM EDT
Nautical Twilight 5:57 AM EDT 8:40 PM EDT
Astronomical Twilight 5:28 AM EDT 9:09 PM EDT
Moon 5:51 PM EDT (4/23) 5:03 AM EDT (4/23)
Length of Visible Light 13h 46m
Length of Day
12h 58m
Waxing Gibbous, 94% of the Moon is Illuminated
Apr 23
Waxing Gibbous
Apr 25
Full
May 2
Last Quarter
May 9
New
May 18
First Quarter

Hourly Weather History & Observations

Time (EDT) Temp. Heat Index Dew Point Humidity Pressure Visibility Wind Dir Wind Speed Gust Speed Precip Events Conditions
12:53 AM 71.1 °F - 68.0 °F 90% 30.01 in 10.0 mi NNW 4.6 mph - N/A   Partly Cloudy
1:53 AM 70.0 °F - 68.0 °F 93% 29.99 in 10.0 mi NNW 5.8 mph - N/A   Clear
2:53 AM 70.0 °F - 68.0 °F 93% 29.97 in 10.0 mi NNW 5.8 mph - N/A   Clear
3:53 AM 69.1 °F - 66.9 °F 93% 29.96 in 10.0 mi NNW 6.9 mph - N/A   Clear
4:53 AM 70.0 °F - 66.9 °F 90% 29.96 in 10.0 mi NW 6.9 mph - N/A   Clear
5:53 AM 69.1 °F - 66.9 °F 93% 29.96 in 10.0 mi NNW 8.1 mph - N/A   Clear
6:53 AM 69.1 °F - 66.9 °F 93% 29.98 in 10.0 mi NNW 6.9 mph - N/A   Partly Cloudy
7:53 AM 69.1 °F - 66.9 °F 93% 30.00 in 10.0 mi NNW 6.9 mph - N/A   Partly Cloudy
8:53 AM 73.9 °F - 68.0 °F 82% 30.01 in 10.0 mi NNW 8.1 mph - 0.01 in   Partly Cloudy
9:53 AM 79.0 °F - 66.0 °F 64% 30.03 in 10.0 mi NE 17.3 mph - N/A   Partly Cloudy
10:53 AM 81.0 °F 83.0 °F 66.0 °F 60% 30.04 in 10.0 mi NE 19.6 mph - N/A   Partly Cloudy
11:53 AM 81.0 °F 83.0 °F 66.0 °F 60% 30.05 in 10.0 mi NE 20.7 mph 28.8 mph N/A   Partly Cloudy
12:53 PM 82.0 °F 83.8 °F 64.9 °F 56% 30.04 in 10.0 mi NE 21.9 mph - N/A   Mostly Cloudy
1:53 PM 82.0 °F 83.8 °F 64.9 °F 56% 30.03 in 10.0 mi ENE 18.4 mph 25.3 mph N/A   Scattered Clouds
2:53 PM 81.0 °F 83.3 °F 66.9 °F 62% 30.01 in 10.0 mi NE 20.7 mph 25.3 mph N/A   Scattered Clouds
3:53 PM 82.0 °F 83.8 °F 64.9 °F 56% 30.00 in 10.0 mi NE 20.7 mph 26.5 mph N/A   Scattered Clouds
4:53 PM 80.1 °F 81.7 °F 64.0 °F 58% 30.00 in 10.0 mi NE 18.4 mph 26.5 mph N/A   Partly Cloudy
5:53 PM 80.1 °F 81.7 °F 64.0 °F 58% 30.01 in 10.0 mi NE 16.1 mph 25.3 mph N/A   Partly Cloudy
6:53 PM 78.1 °F - 63.0 °F 60% 30.02 in 10.0 mi NE 16.1 mph 21.9 mph N/A   Scattered Clouds
7:53 PM 77.0 °F - 61.0 °F 58% 30.04 in 10.0 mi NE 17.3 mph - N/A   Scattered Clouds
8:53 PM 75.9 °F - 62.1 °F 62% 30.06 in 10.0 mi ENE 17.3 mph 23.0 mph N/A   Scattered Clouds
9:53 PM 75.9 °F - 61.0 °F 60% 30.07 in 10.0 mi NE 17.3 mph 24.2 mph N/A   Scattered Clouds
10:53 PM 75.0 °F - 60.1 °F 60% 30.09 in 10.0 mi ENE 13.8 mph - N/A   Scattered Clouds
11:53 PM 75.0 °F - 60.1 °F 60% 30.08 in 10.0 mi ENE 11.5 mph - N/A   Scattered Clouds